Regional Weather Roundup
Issued by NWS Charleston, SC

Current Version | Previous Version | Graphics & Text | Print | Product List | Glossary On
Versions: 1 2 3 4 5 6 7 8 9 10 11 12 13 14 15 16 17 18 19 20 21 22 23 24 25 26 27 28 29 30 31 32 33 34 35 36 37 38 39 40 41 42 43 44 45 46 47 48 49 50
707 ASUS42 KCHS 251527 RWRCHS Regional Weather Roundup National Weather Service Charleston SC 1100 AM EDT FRI MAY 25 2018 NOTE: "fair" indicates few or no clouds below 12,000 feet with no significant weather and/or obstructions to visibility. Not all stations are quality controlled. Use data with caution, especially dewpoint observations. SCZ027-030-031-034>040-042>050-251600- ...Southeast South Carolina... CITY SKY/WX TMP DP RH WIND PRES REMARKS N Charleston PTSUNNY 82 69 64 SE10 30.09F Waterfront Prk N/A 79 74 85 E9 29.94F Mount Pleasant FAIR 81 72 74 S8 30.10S Johns Island PTSUNNY 82 72 69 SE8 30.10S Pinopolis N/A 79 72 78 E6 30.04F Moncks Corner FAIR 81 72 74 SE3 30.09F Summerville FAIR 81 70 69 NE5 30.10F Beaufort MCAS PTSUNNY 81 74 79 SE5 30.09S Beaufort Arpt PTSUNNY 79 70 73 SE8 30.09S Hilton Head Is PTSUNNY 81 73 78 SE9 30.10S Walterboro FAIR 79 70 73 CALM 30.10S Allendale PTSUNNY 79 73 83 SE6 30.08F ...Southern Midlands and Pee Dee... CITY SKY/WX TMP DP RH WIND PRES REMARKS Georgetown CLOUDY 79 77 94 SE12 30.12S Kingstree FAIR 79 70 73 SE3 30.11S Orangeburg PTSUNNY 78 71 79 SE7 30.10S Barnwell FAIR 77 73 88 E7 30.09F Aiken N/A 73 73 100 E5 30.13S Manning PTSUNNY 77 66 69 S5 30.10F Columbia CLOUDY 76 74 93 VRB3 30.09F Sumter CLOUDY 76 70 81 S6 30.09F Florence FAIR 80 70 71 VRB6 30.12S Myrtle Beach PTSUNNY 78 71 79 SE7 30.13F N Myrtle Beach FAIR 79 72 79 SE6 30.12S $$ GAZ063-065-086>088-099>101-113>116-118-119-134>141-150-251600- ...Southeast Georgia... CITY SKY/WX TMP DP RH WIND PRES REMARKS Savannah Arpt NOT AVBL Hunter AAF FAIR 82 74 75 SE8 30.06S Fort Stewart FAIR 81 71 70 S3 30.06S Statesboro PTSUNNY 79 71 76 S7 30.08F Sylvania PTSUNNY 78 75 91 S3 30.09F Claxton FAIR 82 73 76 E6 30.08F HAZE ...CSRA, Central and far Southeast Georgia... CITY SKY/WX TMP DP RH WIND PRES REMARKS Thomson CLOUDY 73 71 93 S3 30.14S Augusta-Bush CLOUDY 76 72 87 VRB6 30.08F Augusta-Daniel PTSUNNY 75 72 90 E6 30.10F Swainsboro PTSUNNY 79 73 83 S7 30.09S Vidalia FAIR 79 70 73 SE5 30.08S Eastman CLOUDY 80 64 59 SE6 30.10S Hazlehurst N/A 80 71 73 S5 30.07S Alma CLOUDY 79 73 82 SE6 30.07F Waycross PTSUNNY 82 76 81 S7 30.07S Jesup PTSUNNY 85 71 61 CALM 30.07F HX 90 Baxley FAIR 79 79 100 S5 30.07F Brunswick PTSUNNY 81 70 69 SE7 30.08F Saint Simons PTSUNNY 82 75 79 SE10 30.08S $$ SCZ027-028-034-036>038-045-046-048>050-GAZ119-141-251600- ...Lake and Supplemental Coastal Observations... STATION/POSITION TIME TEMP WIND PRES WAVE SWELL AIR SEA DIR/SP/G HT/PER HT/PER/DIR (UTC) (F) (DEG/KT/KT) (MB) (FT/S) (FT/S/D) Winyah Bay 1445 78 110/ 7 1020.0S Lake Murray 1420 74 120/ 4/ 8 1018.6S ACE Basin NERRS 1445 82 120/ 3 1019.0S Fort Pulaski 1500 80 79 140/ 6/ 8 1019.3 Sapelo Island 1500 82 140/ 6 1019.0 $$ ANZ835-935-AMZ111-154-330-350-352-354-370-450-454-472-251600- ...C-MAN and Buoy Observations... STATION/POSITION TIME TEMP WIND PRES WAVE SWELL AIR SEA DIR/SP/G HT/PER HT/PER/DIR (UTC) (F) (DEG/KT/KT) (MB) (FT/S) (FT/S/D) Buoy 41004 1500 76 90/ 6/ 6 1019.6 Buoy 41008 1450 77 77 100/ 8/ 8 1018.6S 2/ 8 2/120/ 8 Folly Beach CMAN 1500 77 110/ 10/ 11 1020.1S Capers Nearshore 1508 78 78 100/ 8/ 10 1020.4F Fripp Nearshore 1508 78 79 140/ 8/ 10 1019.1R STATION/POSITION TIME TEMP WIND PRES WAVE SWELL AIR SEA DIR/SP/G HT/PER HT/PER/DIR (UTC) (F) (DEG/KT/KT) (MB) (FT/S) (FT/S/D) 5E St. Marys GA 1500 77 N/A 2/ 8 Frying Pan Buoy 1510 76 77 150/ 6/ 8 1020.0 Buoy 41025 1510 77 78 150/ 10/ 12 1021.1 Cape Lookout NC 1500 100/ 5/ 6 1020.7S Buoy 41002 1510 78 150/ 6/ 6 1020.4 Buoy 41010 1510 78 79 120/ 14/ 16 1019.3 St Augustine FL 1500 77 78 120/ 7/ 7 1018.8F $$

USA.gov is the U.S. government's official web portal to all federal, state and local government web resources and services.